RH
98 94 86 88 90 91 97 85 98 99 91 99 99 97 99 100 100 100 99 96 98 90 74 70 56 64 69 67 90 79 77 79 84 90 94 96 98 94 91 79 81 88 96 95 92 97 92 44 47 52 51 48 50 56
100 99 96 84 85 90 100 83 93 99 92 98 99 99 100 100 100 100 100 100 95 99 79 66 65 71 67 64 64 68 69 78 73 94 98 96 100 99 93 99 66 80 71 79 76 72 48 41 48 50 48 51 59 62
99 100 98 94 81 85 96 80 91 98 97 98 99 99 98 100 99 100 99 100 100 100 97 80 81 69 62 72 71 65 77 69 70 70 86 97 98 94 98 96 72 61 58 68 62 59 48 43 50 52 50 53 62 59
98 99 100 99 89 87 92 92 89 97 98 97 99 98 99 100 98 99 100 96 100 97 95 91 88 82 70 66 76 75 69 71 70 81 89 99 98 81 93 84 80 70 63 94 95 68 67 52 50 50 54 58 60 63
95 97 97 97 92 89 82 80 81 98 98 95 99 99 100 100 100 100 100 97 99 95 95 98 82 86 85 74 73 78 85 80 79 94 99 99 95 96 100 98 98 60 77 90 90 72 83 75 57 58 61 63 64 61
94 97 100 91 92 82 79 76 88 97 98 95 98 100 100 99 100 100 99 98 91 100 94 100 100 99 100 100 95 90 96 92 85 86 97 95 95 92 98 98 75 74 61 66 80 75 85 62 63 64 64 66 64 64
97 99 99 87 86 76 74 89 79 96 99 95 98 100 98 100 100 100 97 93 100 100 99 98 99 100 100 100 100 100 100 99 100 99 100 99 100 99 99 98 76 67 62 62 76 80 71 68 70 70 67 65 68 67
100 92 88 80 78 80 84 79 80 98 97 96 99 99 100 100 100 100 98 100 98 100 100 98 97 98 100 99 98 100 99 100 100 99 99 99 99 99 98 95 72 74 93 95 88 65 63 66 70 71 69 71 68 62
98 89 84 73 78 76 84 91 88 99 98 99 99 100 100 100 99 99 100 100 100 100 98 98 96 96 99 98 98 98 99 98 98 98 98 99 98 97 97 95 83 91 97 96 76 66 69 68 70 72 73 70 64 67
90 81 69 80 71 86 87 86 99 98 100 100 99 100 99 99 99 99 100 100 100 100 99 98 98 97 98 98 98 98 98 97 97 96 98 97 97 90 97 98 98 97 95 79 71 78 74 74 74 76 72 67 68 66
83 78 59 60 79 89 84 98 98 100 99 100 99 99 99 99 99 99 99 99 99 98 97 98 97 96 98 98 97 98 98 97 96 96 96 96 96 90 96 96 96 93 81 73 68 66 66 66 74 72 68 69 65 62
76 60 70 80 76 85 94 99 99 99 99 99 99 99 99 99 99 99 98 98 98 96 100 97 98 97 98 98 97 98 96 97 96 95 96 95 94 96 95 86 81 78 77 76 74 72 78 80 73 67 70 63 63 65
53 80 82 74 72 95 98 99 99 99 100 100 99 99 99 99 98 97 96 97 97 97 97 98 97 97 97 97 97 97 96 96 95 95 95 96 96 96 93 90 89 86 82 81 82 80 75 69 71 72 61 64 65 68
60 76 78 65 68 84 93 100 99 98 99 99 99 97 97 97 97 96 96 96 97 98 98 97 97 97 97 96 97 94 96 95 95 95 94 96 96 93 93 92 88 89 87 82 76 73 72 72 64 63 66 68 70 70
73 71 56 58 79 84 98 99 99 98 98 98 98 96 96 96 96 96 97 96 98 98 97 97 97 95 97 95 96 95 95 95 95 95 96 98 93 90 92 93 92 90 86 80 77 76 74 65 67 69 72 73 70 74
65 66 73 80 83 87 97 100 99 98 98 97 92 96 97 95 96 96 97 97 97 97 95 87 96 95 96 96 95 96 94 96 97 99 98 100 99 97 96 96 95 90 85 82 78 77 68 71 74 75 74 70 74 78
76 77 83 76 81 92 99 99 98 95 96 96 96 96 97 96 96 97 98 98 96 90 100 94 90 100 95 93 96 97 98 100 99 98 94 95 95 94 95 95 92 88 87 83 83 72 74 76 78 78 74 71 74 79
85 90 90 90 88 98 98 96 96 95 95 96 95 96 96 96 99 99 97 87 82 91 85 96 85 93 98 98 100 100 100 100 100 96 96 96 97 98 97 93 92 94 94 91 73 75 77 79 79 78 70 66 74 81
100 99 99 100 100 96 97 96 90 93 96 96 96 95 95 98 100 98 89 84 83 83 78 81 94 100 97 98 100 100 95 91 94 98 98 98 97 96 95 95 95 95 92 76 77 80 82 82 81 76 68 71 76 80
91 100 99 100 100 95 86 92 96 93 96 96 95 95 95 97 97 98 90 81 82 85 88 96 99 98 100 100 100 100 100 100 97 97 98 98 97 97 97 96 96 87 79 80 82 82 82 82 83 74 71 73 73 76
100 98 96 100 92 80 90 95 92 97 95 94 95 96 95 93 95 93 91 88 79 100 97 97 98 97 96 97 97 97 96 96 95 96 95 95 97 97 96 96 88 80 81 83 84 85 98 90 88 80 74 72 75 71
96 96 98 96 92 88 87 94 96 95 88 96 94 90 94 94 98 98 95 84 99 98 98 97 97 96 97 97 97 98 98 96 96 95 94 95 94 95 91 83 84 84 86 87 89 90 93 94 86 81 76 76 75 67
98 98 78 75 73 77 97 83 84 89 94 96 92 90 98 97 98 97 99 98 98 99 98 98 98 98 97 97 97 97 96 97 96 94 87 83 85 85 86 88 90 92 92 94 95 96 95 92 86 80 78 75 73 63
69 67 69 71 75 95 84 88 87 87 86 94 97 100 100 99 96 86 100 99 100 99 98 98 98 98 97 97 96 97 96 96 95 95 95 95 94 94 96 98 98 99 99 98 98 98 98 93 85 78 77 76 72 63
57 78 78 88 83 79 96 96 95 93 100 100 100 100 99 99 100 100 100 99 98 98 98 98 96 97 96 97 97 96 96 96 96 96 96 96 97 96 97 98 98 98 99 99 99 98 98 98 96 87 76 72 69 65
94 100 95 99 97 94 99 100 100 100 99 100 100 97 97 97 95 100 100 100 100 100 99 97 96 98 97 97 98 98 97 96 96 97 96 96 96 96 96 96 97 98 98 97 97 98 97 97 98 98 94 78 70 79
96 98 100 97 96 94 94 90 87 90 99 99 98 95 96 96 98 98 100 100 100 100 100 100 100 100 99 100 98 96 95 95 94 94 94 94 94 95 96 96 96 97 97 97 97 98 98 98 98 97 97 97 86 68
95 92 99 85 82 87 98 95 96 98 96 98 97 96 97 97 98 93 94 96 97 97 97 97 98 99 100 98 96 95 95 96 96 97 97 98 99 100 98 97 96 95 95 97 98 98 98 98 98 98 98 97 98 97
67 69 70 82 79 87 100 100 100 100 100 100 98 95 96 91 92 95 95 96 97 99 100 100 99 99 98 96 96 95 95 96 98 100 100 100 100 100 99 99 98 98 98 99 100 100 100 100 100 98 100 99 98 98
77 78 81 91 95 100 100 100 99 98 97 95 95 94 93 94 96 96 96 96 97 98 98 98 97 97 97 97 96 96 96 95 94 96 100 100 100 100 99 94 90 90 90 95 97 98 99 98 97 95 98 100 100 99
83 83 83 91 97 93 98 98 99 97 97 97 97 95 96 94 94 94 94 95 95 95 96 96 96 97 96 97 97 97 97 97 97 98 98 100 100 100 98 95 91 88 91 96 96 96 96 96 97 97 98 98 99 99
80 89 88 100 93 93 97 96 97 95 96 93 93 94 92 91 89 89 88 90 91 93 93 93 94 95 95 95 96 96 97 98 98 100 100 100 100 100 98 100 98 92 88 89 94 98 99 99 99 100 99 98 99 99
85 90 95 94 96 96 94 91 92 91 90 90 88 89 90 87 82 84 85 87 88 89 91 92 93 94 95 96 97 97 97 99 100 100 100 100 100 100 100 100 100 94 91 90 91 95 97 100 100 100 100 100 99 99
Wind_Speed
35 32 33 33 32 31 30 35 31 29 29 31 31 32 25 29 27 25 21 43 43 22 28 14 28 15 12 18 6 11 7 3 2 4 4 5 4 7 4 6 8 9 9 5 4 4 10 16 7 7 5 11 12 9
36 36 33 33 33 31 31 33 35 27 29 31 29 29 25 23 30 24 34 22 48 26 15 34 33 24 20 23 24 29 6 10 15 3 2 3 3 3 5 4 3 3 7 6 10 6 1 26 3 11 10 11 10 9
37 37 35 32 32 31 30 29 36 29 27 30 26 25 23 25 27 26 30 17 44 33 22 31 23 26 38 24 22 14 10 11 11 9 9 3 4 4 5 6 5 3 10 3 1 3 6 22 12 11 8 8 9 7
37 37 36 33 31 30 29 28 33 30 26 27 25 23 25 23 22 23 29 26 27 16 9 11 24 38 30 33 27 23 11 20 12 12 4 3 3 12 4 1 5 5 11 6 4 2 10 9 12 13 10 8 10 9
41 38 39 32 30 28 29 26 31 32 24 25 26 24 22 21 21 20 22 36 27 33 7 7 18 24 32 40 31 29 18 19 13 7 2 3 5 4 1 1 4 10 7 6 6 10 5 6 18 14 12 13 10 7
40 35 37 28 27 27 26 25 29 32 22 23 24 23 23 20 22 15 8 18 39 40 13 3 9 14 22 24 28 29 27 23 13 9 6 7 7 11 4 4 3 21 14 12 8 12 9 15 17 14 14 12 10 7
36 32 27 24 24 25 24 25 27 27 20 22 24 21 20 19 18 12 8 9 11 30 12 4 3 8 16 16 15 16 20 11 10 8 7 6 5 11 2 4 6 13 12 11 12 17 15 20 13 16 13 12 9 6
22 20 20 21 22 22 22 23 29 24 20 21 25 20 15 16 15 16 24 23 10 6 3 4 2 5 14 7 5 9 8 7 4 5 5 3 6 2 3 3 12 14 14 14 15 9 8 16 19 17 13 11 9 6
19 18 19 19 19 19 22 22 25 20 21 22 18 18 12 10 8 10 13 14 15 5 4 3 6 4 12 4 5 4 6 2 3 1 3 6 2 4 1 12 18 18 12 12 12 11 16 18 19 16 13 11 8 5
13 15 16 17 14 17 20 26 17 17 18 19 11 7 5 6 10 13 9 5 5 2 3 2 5 3 6 4 3 5 2 3 3 1 6 2 1 5 3 7 13 15 9 18 21 18 19 19 17 14 11 9 5 3
11 13 13 11 12 16 20 16 11 14 10 12 8 6 6 6 9 5 3 3 3 2 3 3 4 3 3 2 3 2 2 2 3 2 2 2 1 2 4 9 10 12 15 17 9 11 13 12 15 13 10 6 3 2
9 8 7 9 10 16 18 10 12 12 7 7 3 5 6 4 2 1 0 0 2 3 3 3 5 5 5 4 3 2 2 1 2 5 2 1 1 7 11 13 14 15 15 12 11 14 14 14 12 10 7 4 3 1
5 4 5 8 9 14 15 14 15 10 16 9 4 2 2 1 2 2 3 1 2 2 3 4 4 4 4 5 5 2 3 2 6 2 2 1 6 9 11 13 15 14 13 13 14 13 13 12 10 7 5 4 2 1
4 5 8 8 9 11 14 10 4 3 1 1 2 2 2 1 3 2 1 2 2 8 17 13 5 3 4 3 2 4 2 1 2 2 0 2 10 12 12 12 14 15 14 13 13 12 10 8 6 6 5 4 2 0
4 5 7 7 8 10 3 9 6 3 2 3 4 3 3 2 5 3 4 7 9 10 10 9 7 5 3 4 2 3 2 3 2 1 1 5 11 13 14 14 13 13 12 11 10 8 6 5 5 5 4 3 1 1
3 5 7 5 7 9 7 9 3 6 3 4 7 4 3 4 4 7 9 8 7 6 5 4 3 3 4 2 3 3 3 2 1 1 3 7 11 11 13 12 11 10 9 8 7 5 5 5 5 3 2 2 2 1
4 5 9 8 10 14 9 1 4 6 5 5 5 11 8 10 7 6 6 6 6 3 2 2 4 2 2 3 3 3 2 2 3 5 5 6 11 12 13 12 11 10 9 7 5 5 5 4 3 3 3 3 2 2
3 6 8 7 7 4 5 6 5 6 6 9 4 9 14 11 9 9 6 8 5 4 3 3 5 4 3 3 1 1 4 7 6 5 6 8 10 11 11 10 10 9 8 6 6 5 6 5 4 4 4 4 3 3
3 4 3 4 4 3 4 6 6 5 7 5 6 9 10 10 13 10 10 11 14 11 5 4 5 3 2 4 4 6 6 2 4 6 7 8 8 9 9 9 9 8 6 5 5 5 5 5 5 5 5 4 4 4
2 2 2 5 2 4 4 5 5 5 4 4 6 8 6 7 6 10 13 14 16 7 10 5 3 4 3 5 5 4 3 2 4 8 8 9 9 8 8 7 6 5 5 5 6 6 6 6 6 5 5 6 6 5
1 2 3 5 4 8 6 5 6 5 3 5 5 5 5 9 7 8 10 11 10 7 5 7 7 6 4 3 3 3 4 5 4 2 2 8 8 6 5 5 5 6 6 5 5 5 6 5 5 6 6 6 6 6
2 3 2 7 5 5 6 8 4 3 3 3 4 5 6 4 6 7 7 13 6 6 4 4 3 3 3 4 6 6 5 5 5 4 4 4 7 6 5 5 5 4 4 4 5 6 6 7 7 7 7 7 7 6
4 4 4 7 4 6 4 6 4 5 3 3 3 4 4 4 5 6 6 6 5 9 6 7 7 7 9 9 8 7 6 5 6 6 6 5 4 3 2 2 3 3 4 5 6 6 7 7 8 8 8 8 7 7
6 5 7 6 9 3 3 5 4 4 3 3 3 3 4 5 5 6 3 3 4 5 7 7 7 7 7 6 7 7 7 6 5 5 5 4 2 1 1 1 2 4 5 5 6 6 6 7 8 8 8 8 8 8
2 9 6 6 8 4 5 5 5 5 3 3 3 3 3 4 3 3 2 2 3 4 6 6 6 6 6 6 6 6 5 4 3 3 2 2 1 1 2 2 3 4 5 5 6 6 7 7 7 7 8 8 8 8
7 10 6 8 7 5 2 3 4 2 2 3 2 2 3 2 3 2 1 2 1 3 5 5 6 5 5 4 3 3 3 3 3 2 2 2 2 2 3 3 3 3 4 5 6 6 7 8 8 8 8 8 8 10
5 4 5 7 3 1 4 4 4 5 4 4 2 4 2 3 2 1 1 1 2 2 3 3 3 3 3 3 3 3 3 3 3 2 2 2 2 2 3 4 4 5 6 6 7 7 8 9 9 9 9 8 8 9
5 6 4 8 6 7 2 3 3 3 3 6 3 4 2 1 0 0 1 2 3 2 2 2 1 1 1 1 1 2 2 2 2 2 1 1 2 2 4 5 6 7 8 7 7 8 8 9 9 7 8 9 9 9
4 4 3 6 4 7 7 4 3 2 4 3 2 2 1 1 1 1 2 3 3 2 1 1 0 1 1 2 3 3 3 3 2 3 3 2 2 1 4 6 7 8 8 7 7 7 8 8 10 11 11 9 7 5
5 7 3 4 4 3 4 3 3 4 5 4 2 2 2 2 2 3 3 3 2 2 2 2 2 2 3 4 4 5 4 4 3 2 2 2 2 3 5 7 8 9 10 9 8 7 8 8 8 7 8 9 12 12
3 3 4 4 3 3 4 5 5 5 4 4 5 3 2 2 2 2 1 1 1 1 2 3 4 4 4 5 4 4 4 4 4 3 3 4 4 5 7 10 11 11 11 10 10 11 11 11 10 9 9 11 12 13
5 5 2 2 2 3 2 2 2 2 2 2 2 3 2 1 0 0 1 1 1 2 3 3 3 3 4 4 4 4 5 5 5 5 5 5 4 7 10 13 14 17 17 18 17 16 16 16 15 15 15 16 16 17
2 4 4 3 2 1 1 1 2 1 2 2 3 4 3 2 1 1 1 3 3 3 3 3 4 5 5 6 6 6 6 6 6 7 7 6 7 6 12 14 20 23 22 17 15 14 13 14 14 14 15 15 16 16
Wind_Direction
289 287 287 286 291 288 292 284 286 282 269 272 273 262 267 265 279 278 280 221 217 218 231 231 240 229 190 183 155 151 113 191 120 176 166 193 184 212 170 163 175 165 168 192 181 217 268 154 127 181 149 127 142 151
284 284 283 286 287 282 287 287 290 301 266 268 271 262 266 269 273 287 279 248 224 218 236 236 233 240 232 218 202 170 195 163 172 141 201 128 176 152 172 221 143 217 191 184 189 209 129 173 148 166 167 160 174 185
281 282 282 279 281 280 286 288 294 287 269 269 268 276 263 265 265 271 265 285 207 213 225 229 226 233 234 231 218 184 214 194 194 178 154 172 180 144 176 225 178 245 186 212 119 202 192 183 170 176 172 179 173 179
280 279 278 276 277 276 281 283 288 291 270 269 269 274 266 264 268 266 265 245 250 195 219 212 223 231 233 230 226 220 215 194 188 182 152 160 168 191 202 217 187 184 149 177 241 161 87 192 203 197 184 178 166 162
280 276 277 271 271 273 277 284 283 293 268 270 269 275 270 266 265 269 278 242 273 204 189 165 209 222 223 227 224 222 220 205 184 162 145 211 152 132 129 35 221 180 173 181 219 170 166 184 191 185 180 167 162 161
275 274 275 261 266 269 275 280 283 291 267 270 272 272 269 265 258 271 272 261 236 218 213 156 190 210 217 220 217 214 216 216 209 195 190 207 185 183 177 210 230 197 198 201 171 170 194 166 165 172 168 160 157 156
272 265 261 253 261 266 270 277 285 285 269 269 277 273 264 263 254 242 228 266 252 213 200 122 167 159 186 185 190 190 198 199 194 174 202 152 198 177 191 212 161 170 157 146 160 153 137 160 167 167 166 157 154 147
270 264 247 253 260 265 271 281 284 277 266 265 280 267 255 263 273 237 247 250 265 217 155 121 93 135 164 157 138 158 147 161 167 165 144 136 133 137 237 123 145 146 149 150 167 191 186 171 159 158 159 157 157 153
265 241 247 255 262 270 280 278 279 261 274 264 276 231 241 221 226 230 224 227 223 214 124 128 146 162 161 118 119 120 143 136 143 146 152 160 138 213 331 156 163 170 164 167 158 152 149 156 154 156 161 161 165 160
231 240 251 257 267 276 290 285 274 270 260 271 203 207 220 215 217 180 187 207 187 132 85 85 113 118 146 131 104 112 135 144 150 155 142 169 177 92 69 173 186 173 168 168 149 149 157 156 160 160 161 163 170 183
237 253 256 259 268 281 283 286 287 262 251 193 193 220 229 201 170 199 198 196 144 95 93 108 114 119 138 120 118 119 134 168 147 153 183 157 203 71 133 139 148 159 168 171 177 172 164 164 162 161 161 168 181 212
243 243 254 268 283 287 298 310 279 264 228 210 207 161 151 187 185 150 72 146 33 148 127 114 108 111 109 109 100 106 106 193 128 141 127 145 87 147 144 142 148 155 157 152 151 154 155 156 155 158 164 180 191 218
226 243 273 287 302 303 311 304 281 270 230 184 184 156 160 333 174 182 162 107 86 89 135 135 104 97 98 83 82 109 77 58 126 61 88 80 150 165 160 152 148 153 155 152 146 147 147 150 154 164 179 180 196 252
237 277 291 307 317 312 319 274 276 2 251 121 144 84 69 27 50 21 29 67 81 111 111 102 71 82 87 66 56 79 54 149 62 62 36 155 178 167 164 162 159 152 153 150 149 147 150 153 162 171 176 182 187 233
256 290 312 330 326 326 352 199 332 64 44 39 31 48 55 112 59 41 60 83 90 111 104 101 79 84 65 87 48 116 95 75 67 138 127 166 168 166 165 165 163 156 154 153 152 153 160 172 173 170 172 181 194 230
332 346 1 335 314 318 321 247 19 16 53 51 46 61 96 74 22 47 66 69 77 84 84 78 96 68 53 86 69 47 90 77 117 42 117 149 161 166 163 161 158 157 158 163 165 176 189 180 173 175 186 205 231 257
0 357 352 338 347 344 210 187 17 41 47 45 34 44 59 71 62 40 53 48 35 24 46 50 64 108 95 59 51 15 111 142 137 120 139 163 168 165 164 164 164 166 170 175 186 200 198 197 201 209 222 228 252 277
8 4 4 1 353 338 78 44 54 50 53 30 48 24 59 74 74 59 48 35 25 58 39 91 116 57 59 88 23 21 112 113 116 121 123 140 159 163 166 166 169 176 182 187 202 205 208 213 223 233 237 249 264 284
70 83 33 2 28 36 49 38 40 78 51 50 51 54 63 75 81 79 72 74 69 69 88 60 61 56 63 53 56 75 119 116 144 133 137 144 159 167 170 174 181 186 192 204 211 214 222 230 234 243 244 257 277 282
90 105 32 349 332 49 63 42 49 72 59 36 44 36 54 59 72 51 52 52 50 48 43 39 39 25 56 90 98 86 85 89 131 140 150 162 169 175 181 183 190 203 212 217 221 228 234 244 252 260 261 265 273 261
122 111 28 2 52 54 69 42 52 63 65 73 64 52 61 56 48 40 32 23 56 37 52 51 53 56 76 92 109 121 121 126 131 133 184 185 182 181 188 195 214 219 222 227 239 252 249 260 259 260 263 269 266 266
104 154 56 30 63 67 64 40 61 52 60 76 51 44 46 37 24 22 23 47 58 32 38 24 54 62 73 103 112 118 122 126 122 101 111 148 176 184 201 213 220 230 242 247 253 259 263 266 269 270 267 264 265 265
42 84 51 34 67 47 46 35 46 29 70 23 36 44 25 27 27 19 72 61 71 17 41 63 69 81 96 101 105 108 104 94 101 94 95 114 141 157 180 214 232 246 258 266 268 268 267 264 263 268 271 273 270 265
18 43 31 36 28 51 34 38 39 37 55 35 49 26 359 6 9 60 72 64 62 53 73 75 82 97 97 106 102 97 96 94 90 92 94 91 100 125 163 230 256 266 273 278 278 274 270 271 273 276 277 274 269 264
57 18 20 9 24 42 34 14 360 40 51 1 68 3 335 359 64 59 90 101 37 60 74 78 94 93 99 96 93 91 93 93 89 76 85 78 37 358 324 304 293 287 286 285 286 285 285 285 286 287 285 278 271 266
67 21 42 4 5 46 354 42 21 8 75 42 359 339 352 62 62 56 89 159 96 81 78 86 91 95 102 105 98 91 75 70 60 41 41 28 6 347 340 332 322 311 305 301 299 294 292 292 291 291 289 285 278 268
55 341 30 28 3 24 57 64 60 61 49 28 346 353 23 58 36 106 121 148 143 114 93 92 98 97 91 83 68 57 48 40 32 27 21 14 1 353 348 344 336 324 318 313 308 301 295 292 290 290 289 289 282 276
59 32 46 0 45 38 74 45 37 32 12 347 310 31 57 49 22 205 176 166 168 162 157 142 126 124 112 81 43 20 8 356 342 327 319 23 30 22 4 353 344 334 318 307 297 293 295 296 296 297 302 300 297 285
50 19 14 37 51 46 43 42 47 41 351 0 4 50 61 41 38 134 144 159 168 173 176 214 279 262 288 303 311 316 323 326 317 278 254 228 204 10 18 7 1 358 352 340 321 308 307 309 303 289 298 293 308 297
28 22 73 54 66 20 18 49 68 65 49 53 79 92 73 77 88 119 137 150 170 195 223 247 268 278 287 297 306 309 312 310 308 287 256 232 247 296 324 336 339 337 336 330 329 332 330 323 318 298 287 280 294 297
26 25 72 61 82 63 81 81 70 63 55 50 59 66 93 103 85 88 119 155 203 248 273 290 295 295 296 295 295 298 302 306 322 327 314 291 284 300 315 328 326 324 325 325 324 319 315 312 308 304 293 287 290 291
23 44 77 88 116 151 0 11 22 46 35 32 37 30 28 26 345 111 20 354 323 318 317 314 309 308 310 311 309 304 299 293 289 286 285 287 285 298 320 320 316 315 315 315 310 303 299 296 293 289 286 286 286 287
56 51 68 87 95 97 33 22 32 44 44 40 28 23 18 5 358 358 340 349 341 328 322 318 314 312 308 303 299 297 295 290 287 285 288 284 294 301 332 313 299 304 311 314 310 306 301 297 294 293 293 293 292 292